{"data":{"norad_id":65287,"intl_designator":"2025-184Q","name":"STARLINK-35007","alt_names":[],"object_type":"PAYLOAD","status":"ACTIVE","operator":null,"country":"US","launch_date":"2025-08-22","launch_site_code":"AFWTR","launch_vehicle":null,"mission":null,"orbit_class":"UNKNOWN","rcs_meters":null,"size_class":null,"mass_kg":null,"dimensions":null,"purposes":["comms"],"wikipedia_slug":null,"has_3d_model":false,"image_url":null,"decayed_at":null,"tle_current":{"epoch":"2026-05-25T03:43:53.205888Z","epoch_age_seconds":72333,"freshness":"FRESH","line1":"1 65287U 25184Q   26145.15547692  .00047157  00000+0  32428-2 0  9999","line2":"2 65287  97.4501 197.6182 0001332 103.3159 256.8217 15.05741659 42742","mean_motion":15.05741659,"eccentricity":0.0001332,"inclination_deg":97.4501,"raan_deg":197.6182,"arg_perigee_deg":103.3159,"mean_anomaly_deg":256.8217,"bstar":0.0032428,"rev_number":4274,"period_min":95.633935037458,"perigee_km":548.30728812001,"apogee_km":550.15273869238,"semimajor_km":6927.3670134062,"source":"CELESTRAK","updated_at":"2026-05-25T13:38:20.732316Z"}}}